KAC176 OBBI-OKKK

Flight info

Callsign KAC176
Flight time 0h 44m
Altitude 26000
Route BHR345/30R BHR A453 DEBTI
Aircraft A320/M-SDE3FGHIRWY/LB1

Departure

Time 2026-05-06 17:40
Airport Bahrain International Airport (OBBI)

Arrival

Time 2026-05-06 18:24
Airport Kuwait International Airport (OKKK)
Time Latitude Longitude Altitude Speed Heading
2026-05-06 17:17 26.26420 50.63802 15 ft 0 kts 213°
2026-05-06 17:29 26.26435 50.63812 15 ft 4 kts 212°
2026-05-06 17:30 26.26456 50.63830 15 ft 4 kts 229°
2026-05-06 17:30 26.26462 50.63837 16 ft 0 kts 238°
2026-05-06 17:30 26.26467 50.63847 15 ft 1 kts 180°
2026-05-06 17:31 26.26475 50.63846 19 ft 1 kts 155°
2026-05-06 17:31 26.26479 50.63845 17 ft 0 kts 124°
2026-05-06 17:35 26.26475 50.63851 18 ft 1 kts 124°
2026-05-06 17:36 26.26439 50.63919 14 ft 9 kts 122°
2026-05-06 17:36 26.26416 50.63980 14 ft 8 kts 86°
2026-05-06 17:36 26.26462 50.64041 14 ft 11 kts 53°
2026-05-06 17:36 26.26446 50.64120 14 ft 13 kts 122°
2026-05-06 17:37 26.26384 50.64218 13 ft 18 kts 121°
2026-05-06 17:37 26.26308 50.64351 12 ft 23 kts 123°
2026-05-06 17:37 26.26211 50.64520 13 ft 28 kts 123°
2026-05-06 17:37 26.26106 50.64700 12 ft 27 kts 122°
2026-05-06 17:38 26.26008 50.64871 14 ft 24 kts 123°
2026-05-06 17:38 26.25955 50.64964 14 ft 0 kts 123°
2026-05-06 17:38 26.25965 50.64973 14 ft 11 kts 29°
2026-05-06 17:38 26.26067 50.64982 16 ft 14 kts 21°
2026-05-06 17:39 26.26157 50.64971 16 ft 18 kts 305°
2026-05-06 17:39 26.26342 50.64657 15 ft 81 kts 302°
2026-05-06 17:39 26.26759 50.63939 14 ft 136 kts 302°
2026-05-06 17:39 26.27338 50.62950 333 ft 157 kts 303°
2026-05-06 17:40 26.28021 50.62002 990 ft 158 kts 327°
2026-05-06 17:40 26.29063 50.61517 1546 ft 173 kts 344°
2026-05-06 17:40 26.30293 50.61188 1850 ft 196 kts 347°
2026-05-06 17:40 26.31730 50.60875 2176 ft 219 kts 347°
2026-05-06 17:41 26.33287 50.60565 2506 ft 243 kts 348°
2026-05-06 17:41 26.35020 50.60222 2925 ft 261 kts 348°
2026-05-06 17:41 26.36820 50.59869 3638 ft 262 kts 348°
2026-05-06 17:41 26.38627 50.59498 3919 ft 270 kts 348°
2026-05-06 17:42 26.40526 50.59158 4212 ft 282 kts 350°
2026-05-06 17:42 26.42442 50.58707 5020 ft 282 kts 344°
2026-05-06 17:42 26.44347 50.58146 5767 ft 284 kts 341°
2026-05-06 17:42 26.46247 50.57514 6516 ft 286 kts 339°
2026-05-06 17:43 26.48150 50.56833 7217 ft 289 kts 339°
2026-05-06 17:43 26.50068 50.56122 7918 ft 292 kts 339°
2026-05-06 17:43 26.52007 50.55397 8644 ft 295 kts 338°
2026-05-06 17:43 26.53963 50.54663 9388 ft 298 kts 340°
2026-05-06 17:44 26.55930 50.53925 10108 ft 300 kts 340°
2026-05-06 17:44 26.57975 50.53155 10407 ft 321 kts 339°
2026-05-06 17:44 26.60153 50.52332 10697 ft 338 kts 340°
2026-05-06 17:44 26.62415 50.51482 11258 ft 345 kts 340°
2026-05-06 17:45 26.64707 50.50623 11927 ft 349 kts 340°
2026-05-06 17:45 26.67016 50.49759 12614 ft 353 kts 341°
2026-05-06 17:45 26.69317 50.48759 13281 ft 356 kts 332°
2026-05-06 17:45 26.71410 50.47280 13922 ft 358 kts 321°
2026-05-06 17:46 26.73259 50.45401 14554 ft 360 kts 315°
2026-05-06 17:46 26.75083 50.43468 15173 ft 362 kts 315°
2026-05-06 17:46 26.76923 50.41527 15813 ft 365 kts 315°
2026-05-06 17:46 26.78781 50.39566 16423 ft 368 kts 315°
2026-05-06 17:47 26.80649 50.37595 17061 ft 370 kts 315°
2026-05-06 17:47 26.82524 50.35616 17699 ft 372 kts 314°
2026-05-06 17:47 26.84411 50.33621 18310 ft 374 kts 314°
2026-05-06 17:47 26.86306 50.31609 18845 ft 376 kts 314°
2026-05-06 17:48 26.88190 50.29606 19380 ft 379 kts 314°
2026-05-06 17:48 26.90127 50.27547 19923 ft 381 kts 314°
2026-05-06 17:48 26.92033 50.25522 20457 ft 383 kts 313°
2026-05-06 17:48 26.93973 50.23463 20984 ft 385 kts 313°
2026-05-06 17:49 26.95924 50.21392 21500 ft 387 kts 313°
2026-05-06 17:49 26.97883 50.19309 22022 ft 389 kts 312°
2026-05-06 17:49 26.99851 50.17215 22510 ft 392 kts 312°
2026-05-06 17:49 27.01838 50.15103 23017 ft 394 kts 312°
2026-05-06 17:50 27.03831 50.12983 23503 ft 396 kts 311°
2026-05-06 17:50 27.05713 50.10739 23891 ft 395 kts 306°
2026-05-06 17:50 27.07500 50.08390 24283 ft 397 kts 306°
2026-05-06 17:50 27.09294 50.06028 24711 ft 398 kts 305°
2026-05-06 17:51 27.11097 50.03657 25098 ft 400 kts 305°
2026-05-06 17:51 27.12906 50.01275 25487 ft 402 kts 305°
2026-05-06 17:51 27.14719 49.98886 25796 ft 404 kts 305°
2026-05-06 17:51 27.16534 49.96500 25868 ft 396 kts 305°
2026-05-06 17:52 27.18294 49.94198 25883 ft 383 kts 305°
2026-05-06 17:52 27.20022 49.91931 25882 ft 380 kts 304°
2026-05-06 17:52 27.21727 49.89682 25880 ft 378 kts 304°
2026-05-06 17:52 27.23429 49.87430 25880 ft 378 kts 304°
2026-05-06 17:53 27.25133 49.85173 25879 ft 378 kts 304°
2026-05-06 17:53 27.26831 49.82928 25878 ft 378 kts 304°
2026-05-06 17:53 27.28537 49.80673 25882 ft 378 kts 304°
2026-05-06 17:53 27.30241 49.78424 25885 ft 378 kts 304°
2026-05-06 17:54 27.31946 49.76174 25885 ft 378 kts 304°
2026-05-06 17:54 27.33649 49.73924 25890 ft 378 kts 304°
2026-05-06 17:54 27.35350 49.71672 25884 ft 378 kts 304°
2026-05-06 17:54 27.37048 49.69422 25880 ft 378 kts 304°
2026-05-06 17:55 27.38748 49.67164 25879 ft 378 kts 304°
2026-05-06 17:55 27.40450 49.64905 25890 ft 378 kts 304°
2026-05-06 17:55 27.41577 49.63409 25890 ft 378 kts 304°
2026-05-06 17:55 27.43283 49.61147 25886 ft 378 kts 304°
2026-05-06 17:56 27.44985 49.58892 25887 ft 378 kts 304°
2026-05-06 17:56 27.46685 49.56636 25893 ft 378 kts 304°
2026-05-06 17:56 27.48466 49.54452 25891 ft 382 kts 311°
2026-05-06 17:56 27.50536 49.52544 25893 ft 385 kts 315°
2026-05-06 17:57 27.52632 49.50675 25891 ft 385 kts 315°
2026-05-06 17:57 27.54732 49.48796 25893 ft 385 kts 315°
2026-05-06 17:57 27.56834 49.46912 25898 ft 385 kts 315°
2026-05-06 17:57 27.59612 49.44423 25896 ft 385 kts 315°
2026-05-06 17:58 27.61025 49.43156 25898 ft 385 kts 315°
2026-05-06 17:58 27.63125 49.41270 25897 ft 385 kts 315°
2026-05-06 17:58 27.65221 49.39388 25895 ft 385 kts 315°
2026-05-06 17:58 27.67316 49.37506 25900 ft 385 kts 315°
2026-05-06 17:59 27.69390 49.35648 25899 ft 385 kts 315°
2026-05-06 17:59 27.71509 49.33746 25896 ft 385 kts 315°
2026-05-06 17:59 27.73603 49.31862 25911 ft 385 kts 315°
2026-05-06 17:59 27.75697 49.29977 25914 ft 385 kts 315°
2026-05-06 18:00 27.77791 49.28090 25909 ft 385 kts 315°
2026-05-06 18:00 27.79859 49.26228 25906 ft 385 kts 314°
2026-05-06 18:00 27.81954 49.24338 25904 ft 385 kts 314°
2026-05-06 18:00 27.84048 49.22447 25902 ft 385 kts 314°
2026-05-06 18:01 27.86144 49.20556 25902 ft 386 kts 315°
2026-05-06 18:01 27.88333 49.18786 25900 ft 392 kts 322°
2026-05-06 18:01 27.90699 49.17234 25903 ft 392 kts 323°
2026-05-06 18:01 27.93064 49.15688 25913 ft 393 kts 323°
2026-05-06 18:02 27.95422 49.14144 25913 ft 393 kts 323°
2026-05-06 18:02 27.97785 49.12596 25914 ft 392 kts 323°
2026-05-06 18:02 28.00146 49.11045 25913 ft 392 kts 322°
2026-05-06 18:02 28.02503 49.09492 25910 ft 392 kts 322°
2026-05-06 18:03 28.04864 49.07939 25913 ft 392 kts 322°
2026-05-06 18:03 28.07219 49.06393 25908 ft 392 kts 322°
2026-05-06 18:03 28.09578 49.04844 25915 ft 392 kts 322°
2026-05-06 18:03 28.11943 49.03290 25915 ft 392 kts 322°
2026-05-06 18:04 28.14311 49.01732 25771 ft 397 kts 322°
2026-05-06 18:04 28.16678 49.00175 25093 ft 389 kts 323°
2026-05-06 18:04 28.18983 48.98667 24614 ft 375 kts 323°
2026-05-06 18:04 28.21198 48.97218 24151 ft 362 kts 323°
2026-05-06 18:05 28.23348 48.95807 23704 ft 354 kts 323°
2026-05-06 18:05 28.25477 48.94397 23204 ft 354 kts 323°
2026-05-06 18:05 28.27600 48.92986 22747 ft 353 kts 323°
2026-05-06 18:05 28.29717 48.91582 22285 ft 351 kts 323°
2026-05-06 18:06 28.31819 48.90189 21837 ft 349 kts 323°
2026-05-06 18:06 28.33912 48.88803 21399 ft 347 kts 323°
2026-05-06 18:06 28.35997 48.87424 20961 ft 346 kts 323°
2026-05-06 18:06 28.38073 48.86050 20525 ft 345 kts 323°
2026-05-06 18:07 28.40143 48.84678 20093 ft 344 kts 323°
2026-05-06 18:07 28.42200 48.83310 19665 ft 343 kts 324°
2026-05-06 18:07 28.44262 48.81938 19236 ft 343 kts 324°
2026-05-06 18:07 28.46315 48.80574 18807 ft 343 kts 323°
2026-05-06 18:08 28.48380 48.79201 18382 ft 343 kts 323°
2026-05-06 18:08 28.50444 48.77830 17924 ft 344 kts 324°
2026-05-06 18:08 28.52506 48.76461 17481 ft 344 kts 324°
2026-05-06 18:08 28.54572 48.75089 17059 ft 343 kts 324°
2026-05-06 18:09 28.56597 48.73677 16647 ft 339 kts 318°
2026-05-06 18:09 28.58305 48.71893 16247 ft 330 kts 305°
2026-05-06 18:09 28.59697 48.69834 15847 ft 328 kts 302°
2026-05-06 18:09 28.61070 48.67766 15456 ft 327 kts 302°
2026-05-06 18:10 28.62442 48.65708 15079 ft 326 kts 302°
2026-05-06 18:10 28.63799 48.63682 14681 ft 315 kts 302°
2026-05-06 18:10 28.65101 48.61742 14321 ft 303 kts 302°
2026-05-06 18:10 28.66368 48.59845 13978 ft 301 kts 302°
2026-05-06 18:11 28.67632 48.57943 13606 ft 302 kts 302°
2026-05-06 18:11 28.68897 48.56030 13222 ft 301 kts 302°
2026-05-06 18:11 28.70157 48.54126 12863 ft 300 kts 302°
2026-05-06 18:11 28.71387 48.52273 12712 ft 292 kts 302°
2026-05-06 18:12 28.72595 48.50456 12589 ft 283 kts 302°
2026-05-06 18:12 28.73767 48.48693 12413 ft 277 kts 301°
2026-05-06 18:12 28.74901 48.46931 12136 ft 274 kts 300°
2026-05-06 18:12 28.76011 48.45160 11774 ft 275 kts 300°
2026-05-06 18:13 28.77112 48.43387 11413 ft 273 kts 301°
2026-05-06 18:13 28.78206 48.41632 11017 ft 269 kts 301°
2026-05-06 18:13 28.79288 48.39899 10635 ft 268 kts 301°
2026-05-06 18:13 28.80369 48.38167 10268 ft 269 kts 301°
2026-05-06 18:14 28.81461 48.36417 9891 ft 272 kts 301°
2026-05-06 18:14 28.82556 48.34669 9554 ft 271 kts 301°
2026-05-06 18:14 28.83650 48.32927 9175 ft 267 kts 301°
2026-05-06 18:14 28.84725 48.31217 8735 ft 264 kts 301°
2026-05-06 18:15 28.85788 48.29522 8350 ft 262 kts 301°
2026-05-06 18:15 28.86842 48.27839 7987 ft 261 kts 301°
2026-05-06 18:15 28.87895 48.26152 7618 ft 260 kts 301°
2026-05-06 18:15 28.88944 48.24473 7262 ft 260 kts 301°
2026-05-06 18:16 28.89995 48.22793 6887 ft 260 kts 301°
2026-05-06 18:16 28.91045 48.21114 6536 ft 260 kts 302°
2026-05-06 18:16 28.92096 48.19437 6151 ft 259 kts 302°
2026-05-06 18:16 28.93144 48.17762 5785 ft 259 kts 302°
2026-05-06 18:17 28.94190 48.16088 5435 ft 258 kts 302°
2026-05-06 18:17 28.95205 48.14463 5304 ft 245 kts 302°
2026-05-06 18:17 28.96179 48.12900 4844 ft 241 kts 302°
2026-05-06 18:17 28.97301 48.11490 4404 ft 239 kts 320°
2026-05-06 18:18 28.98719 48.10531 4056 ft 235 kts 330°
2026-05-06 18:18 29.00139 48.09648 3718 ft 230 kts 332°
2026-05-06 18:18 29.01527 48.08781 3387 ft 225 kts 333°
2026-05-06 18:18 29.02875 48.07937 3128 ft 219 kts 334°
2026-05-06 18:19 29.04165 48.07128 2961 ft 203 kts 334°
2026-05-06 18:19 29.05316 48.06370 2832 ft 179 kts 330°
2026-05-06 18:19 29.06318 48.05666 2635 ft 159 kts 334°
2026-05-06 18:19 29.07252 48.05109 2472 ft 144 kts 337°
2026-05-06 18:20 29.08129 48.04621 2381 ft 138 kts 338°
2026-05-06 18:20 29.08985 48.04157 2288 ft 135 kts 338°
2026-05-06 18:20 29.09832 48.03704 2158 ft 134 kts 339°
2026-05-06 18:20 29.10679 48.03253 2046 ft 135 kts 338°
2026-05-06 18:21 29.11530 48.02801 1930 ft 134 kts 338°
2026-05-06 18:21 29.12361 48.02359 1820 ft 133 kts 337°
2026-05-06 18:21 29.13193 48.01918 1772 ft 132 kts 337°
2026-05-06 18:21 29.14016 48.01481 1666 ft 130 kts 337°
2026-05-06 18:22 29.14835 48.01047 1529 ft 130 kts 339°
2026-05-06 18:22 29.15653 48.00613 1372 ft 130 kts 339°
2026-05-06 18:22 29.16486 48.00172 1202 ft 135 kts 337°
2026-05-06 18:22 29.17347 47.99715 1041 ft 136 kts 338°
2026-05-06 18:23 29.18207 47.99258 877 ft 136 kts 338°
2026-05-06 18:23 29.19061 47.98804 699 ft 134 kts 338°
2026-05-06 18:23 29.19936 47.98355 485 ft 140 kts 336°
2026-05-06 18:23 29.20813 47.97875 328 ft 140 kts 336°
2026-05-06 18:24 29.21685 47.97410 170 ft 133 kts 336°
2026-05-06 18:24 29.22304 47.97084 165 ft 55 kts 335°
2026-05-06 18:24 29.22466 47.96994 163 ft 32 kts 335°
2026-05-06 18:24 29.22703 47.96872 162 ft 37 kts 335°
2026-05-06 18:25 29.22931 47.96751 163 ft 35 kts 334°
2026-05-06 18:25 29.23145 47.96634 163 ft 33 kts 335°
2026-05-06 18:25 29.23350 47.96603 164 ft 27 kts 20°
2026-05-06 18:25 29.23523 47.96667 162 ft 21 kts
2026-05-06 18:26 29.23628 47.96631 164 ft 12 kts 350°
2026-05-06 18:26 29.23678 47.96695 165 ft 11 kts 58°
2026-05-06 18:26 29.23749 47.96734 166 ft 12 kts 10°
2026-05-06 18:26 29.23784 47.96740 166 ft 0 kts